SCP
0 0 0 0 0 0 0 0 0 0 0 0 0 0 0 0 0 0 0 0 0 0
0 0 0 0 0 0 0 0 0 0 0 0 0 0 0 0 0 0 0 0 0 0
0 0 0 0 0 0 0 0 0 0 0 0 0 0 0 0 0 0 0 0 0 0
0 0 0 0 0 0 0 0 0 0 0 0 0 0 0 0 0 0 0 0 0 0
0 0 0 0 0 0 0 0 0 0 0 0 0 0 0 0 0 0 0 0 0 0
0 0 0 0 0 0 0 0 0 0 0 0 0 0 0 0 0 0 0 0 0 0
0 0 0 0 0 0 0 0 0 0 0 0 0 0 0 0 0 0 0 0 0 0
0 0 0 0 0 0 0 0 0 0 0 0 0 0 0 0 0 0 0 0 0 0
0 0 0 0 0 0 0 0 0 0 0 0 0 0 0 0 0 0 0 0 0 0
0 0 0 0 0 0 0 0 0 0 0 0 0 0 0 0 0 0 0 0 0 0
0 0 0 0 0 0 0 0 0 0 0 0 0 0 0 0 0 0 0 0 0 0
0 0 0 0 0 0 0 0 0 0 0 0 0 0 0 0 0 0 0 0 0 0
0 0 0 0 0 0 0 0 0 0 0 0 0 0 0 0 0 0 0 0 0 0
0 0 0 0 0 0 0 0 0 0 0 0 0 0 0 0 0 0 0 0 0 0
Wind_Speed_500mb
5 12 16 18 19 21 23 26 28 31 32 33 34 35 36 36 37 35 35 34 32 32
5 11 17 21 22 22 23 25 28 30 32 33 34 35 35 36 37 36 36 34 34 32
9 12 17 22 25 25 26 27 29 31 32 33 34 35 36 37 37 36 36 36 34 33
15 14 19 23 27 29 29 29 30 32 33 34 36 36 37 37 38 38 37 36 35 35
22 20 21 25 30 31 31 31 31 34 35 36 36 36 37 38 38 38 38 37 36 36
30 26 25 29 34 33 32 33 35 37 38 38 38 37 38 38 38 39 40 39 38 39
35 31 29 33 37 34 33 35 37 40 41 41 39 38 39 39 38 40 41 41 40 41
38 33 34 36 37 35 35 36 40 43 44 44 42 40 41 40 39 41 42 43 44 44
38 36 38 38 37 38 40 41 45 45 46 46 45 43 43 42 42 43 44 46 47 48
36 38 37 36 38 43 46 49 51 49 50 49 49 47 46 45 46 47 47 48 49 50
36 37 37 38 42 45 49 54 56 55 53 53 51 49 49 48 50 51 49 49 51 52
36 40 43 47 50 52 56 57 58 57 57 56 51 51 51 51 53 54 53 51 50 51
39 45 50 54 57 58 60 59 58 60 59 57 54 51 53 52 55 57 55 54 53 51
47 53 56 59 58 59 58 57 59 61 60 58 56 54 54 54 55 56 56 55 53 52
Wind_Direction_500mb
25 13 5 359 354 351 351 352 353 354 355 355 353 353 352 352 351 350 350 349 348 345
320 348 349 344 337 334 334 337 340 343 344 344 344 344 343 343 342 342 342 341 341 339
275 317 331 333 325 318 317 321 327 332 334 335 335 335 335 335 335 334 334 334 334 333
264 292 313 322 319 309 303 306 314 321 323 326 327 328 328 329 328 327 328 328 327 327
258 275 298 312 315 305 295 294 302 311 314 318 320 321 321 322 321 320 321 322 321 321
252 268 290 305 313 305 294 290 298 304 307 311 314 316 317 317 316 316 317 316 316 316
249 265 286 300 308 302 294 292 297 299 302 304 307 310 312 311 310 312 312 312 312 313
250 267 286 296 301 297 293 294 295 296 297 298 300 304 307 306 305 308 309 308 308 309
254 272 285 294 294 292 292 293 292 295 294 294 295 298 301 300 300 304 304 303 303 304
261 271 281 288 294 295 292 287 287 290 292 290 291 293 295 295 296 299 300 299 299 301
260 270 280 288 294 296 292 285 282 284 288 286 288 287 290 290 291 295 297 297 297 298
267 277 283 286 290 291 289 285 280 279 283 284 285 282 285 286 289 293 295 295 294 295
277 284 286 288 288 288 287 284 277 275 280 281 281 279 283 285 287 290 292 293 292 293
283 286 289 292 293 290 285 279 274 273 276 277 278 278 281 281 284 287 289 290 293 295
Wind_Speed_850mb
5 12 16 18 19 21 23 26 28 31 32 33 34 35 36 36 37 35 35 34 32 32
5 11 17 21 22 22 23 25 28 30 32 33 34 35 35 36 37 36 36 34 34 32
9 12 17 22 25 25 26 27 29 31 32 33 34 35 36 37 37 36 36 36 34 33
15 14 19 23 27 29 29 29 30 32 33 34 36 36 37 37 38 38 37 36 35 35
22 20 21 25 30 31 31 31 31 34 35 36 36 36 37 38 38 38 38 37 36 36
30 26 25 29 34 33 32 33 35 37 38 38 38 37 38 38 38 39 40 39 38 39
35 31 29 33 37 34 33 35 37 40 41 41 39 38 39 39 38 40 41 41 40 41
38 33 34 36 37 35 35 36 40 43 44 44 42 40 41 40 39 41 42 43 44 44
38 36 38 38 37 38 40 41 45 45 46 46 45 43 43 42 42 43 44 46 47 48
36 38 37 36 38 43 46 49 51 49 50 49 49 47 46 45 46 47 47 48 49 50
36 37 37 38 42 45 49 54 56 55 53 53 51 49 49 48 50 51 49 49 51 52
36 40 43 47 50 52 56 57 58 57 57 56 51 51 51 51 53 54 53 51 50 51
39 45 50 54 57 58 60 59 58 60 59 57 54 51 53 52 55 57 55 54 53 51
47 53 56 59 58 59 58 57 59 61 60 58 56 54 54 54 55 56 56 55 53 52
Wind_Direction_850mb
25 13 5 359 354 351 351 352 353 354 355 355 353 353 352 352 351 350 350 349 348 345
320 348 349 344 337 334 334 337 340 343 344 344 344 344 343 343 342 342 342 341 341 339
275 317 331 333 325 318 317 321 327 332 334 335 335 335 335 335 335 334 334 334 334 333
264 292 313 322 319 309 303 306 314 321 323 326 327 328 328 329 328 327 328 328 327 327
258 275 298 312 315 305 295 294 302 311 314 318 320 321 321 322 321 320 321 322 321 321
252 268 290 305 313 305 294 290 298 304 307 311 314 316 317 317 316 316 317 316 316 316
249 265 286 300 308 302 294 292 297 299 302 304 307 310 312 311 310 312 312 312 312 313
250 267 286 296 301 297 293 294 295 296 297 298 300 304 307 306 305 308 309 308 308 309
254 272 285 294 294 292 292 293 292 295 294 294 295 298 301 300 300 304 304 303 303 304
261 271 281 288 294 295 292 287 287 290 292 290 291 293 295 295 296 299 300 299 299 301
260 270 280 288 294 296 292 285 282 284 288 286 288 287 290 290 291 295 297 297 297 298
267 277 283 286 290 291 289 285 280 279 283 284 285 282 285 286 289 293 295 295 294 295
277 284 286 288 288 288 287 284 277 275 280 281 281 279 283 285 287 290 292 293 292 293
283 286 289 292 293 290 285 279 274 273 276 277 278 278 281 281 284 287 289 290 293 295